FW8482 Weather Reports


time (UTC)temp
F
wind
direction
speed
knots
gust
knots
rain 1hr
in
rain 24hr
in
rain mn
in
humidity
%
barometer
mb
20260507004956 48 270 0.0 0.0 0.00 0.54 0.31 68 1015.7
20260507003956 49 270 0.0 0.0 0.00 0.54 0.31 67 1015.6
20260507002956 50 270 0.0 0.0 0.00 0.54 0.31 64 1015.5
20260507000955 53 315 0.0 0.0 0.00 0.55 0.31 63 1015.3
20260506235958 53 306 0.0 0.9 0.00 0.55 0.31 63 1015.3
20260506233058 54 294 0.0 1.7 0.00 0.55 0.31 61 1015.2
20260506231056 55 338 0.0 0.9 0.00 0.55 0.31 60 1015.3
20260506225111 55 272 0.0 1.7 0.00 0.55 0.31 61 1015.7
20260506223154 56 341 0.0 0.9 0.00 0.55 0.31 61 1015.8
20260506222201 57 284 0.0 0.0 0.00 0.55 0.31 61 1015.9
20260506220256 57 315 0.0 0.9 0.00 0.60 0.31 64 1015.3
20260506215256 57 305 0.0 0.9 0.00 0.63 0.31 62 1015.2
20260506214255 57 314 0.0 1.7 0.00 0.64 0.31 62 1015.0
20260506213256 57 316 0.0 1.7 0.00 0.64 0.31 59 1014.9
20260506212354 57 270 0.0 0.9 0.00 0.64 0.31 59 1014.7
20260506211355 58 268 0.9 4.3 0.00 0.64 0.31 62 1014.7
20260506210355 58 292 0.9 1.7 0.00 0.64 0.31 61 1014.8
20260506205454 59 337 0.0 1.7 0.00 0.64 0.31 57 1014.6
20260506204457 60 219 0.0 1.7 0.00 0.64 0.31 55 1014.6
20260506203455 62 330 0.9 1.7 0.00 0.64 0.31 55 1014.6
20260506202554 64 332 0.0 1.7 0.00 0.64 0.31 55 1014.6
20260506201556 65 32 0.9 3.5 0.00 0.64 0.31 54 1014.1
20260506200654 66 304 1.7 2.6 0.00 0.64 0.31 56 1014.2
20260506194755 64 298 0.0 2.6 0.00 0.64 0.31 61 1014.2
20260506193755 63 307 0.9 3.5 0.00 0.64 0.31 54 1014.4
20260506192756 64 282 0.9 2.6 0.00 0.64 0.31 57 1014.3
20260506191755 64 302 0.9 4.3 0.00 0.64 0.31 58 1013.9
20260506190756 64 259 3.5 7.0 0.00 0.64 0.31 57 1014.1
20260506183756 64 353 0.0 2.6 0.00 0.64 0.31 60 1014.3
20260506182756 62 70 0.9 2.6 0.00 0.64 0.31 60 1014.5
20260506181756 61 290 0.0 0.0 0.00 0.64 0.31 56 1014.5
20260506180813 63 263 0.9 1.7 0.00 0.64 0.31 58 1014.4
20260506175856 63 266 1.7 3.5 0.00 0.64 0.31 57 1014.6
20260506174854 63 269 0.9 3.5 0.00 0.64 0.31 59 1014.5
20260506172955 62 265 2.6 5.2 0.00 0.64 0.31 63 1014.6
20260506171955 61 23 0.0 2.6 0.00 0.64 0.31 64 1014.7
20260506165955 62 59 3.5 6.1 0.00 0.64 0.31 64 1014.7
20260506165053 62 11 0.9 4.3 0.00 0.64 0.31 65 1014.4
20260506164056 61 360 0.0 0.0 0.00 0.64 0.31 65 1014.6
20260506163055 61 267 1.7 3.5 0.00 0.64 0.31 65 1014.9
20260506162054 61 338 0.9 3.5 0.00 0.64 0.31 70 1014.7
20260506161956 61 56 1.7 3.5 0.00 0.64 0.31 70 1014.9
20260506160954 60 339 0.0 0.9 0.00 0.69 0.31 71 1014.7
20260506155956 59 318 0.0 3.5 0.00 0.69 0.31 75 1014.7
20260506154956 59 1 0.9 1.7 0.00 0.69 0.31 76 1014.5
20260506154054 59 315 0.9 2.6 0.00 0.69 0.31 82 1014.3
20260506153956 59 327 0.9 2.6 0.00 0.69 0.31 83 1014.2
20260506151955 55 191 0.0 0.9 0.00 0.69 0.31 93 1014.0
20260506150955 54 316 0.9 2.6 0.00 0.69 0.31 98 1013.9
20260506145955 54 359 1.7 4.3 0.00 0.69 0.31 99 1013.9
20260506144956 53 324 0.0 0.9 0.00 0.69 0.31 99 1014.0
20260506143955 52 6 0.0 1.7 0.00 0.69 0.31 98 1013.9
20260506142955 52 327 0.0 1.7 0.00 0.69 0.31 98 1013.8
20260506142054 52 331 0.0 1.7 0.00 0.69 0.31 99 1014.0
20260506140056 51 305 0.9 2.6 0.00 0.69 0.31 99 1013.3
20260506135110 50 352 0.0 1.7 0.00 0.69 0.31 99 1013.1
20260506134054 50 17 0.0 2.6 0.00 0.69 0.31 99 1013.0
20260506133153 49 315 0.0 0.0 0.00 0.69 0.31 98 1012.9
20260506132156 48 360 0.0 0.0 0.00 0.69 0.31 99 1012.8
20260506131154 48 327 0.0 1.7 0.00 0.69 0.31 99 1012.6
20260506130156 48 337 0.0 0.0 0.00 0.69 0.31 99 1012.6
20260506124256 47 337 0.0 0.0 0.00 0.69 0.31 99 1012.5
20260506123255 47 35 0.0 0.0 0.00 0.69 0.31 99 1012.3
20260506122255 46 330 0.0 1.7 0.00 0.69 0.31 99 1011.6
20260506122154 46 315 0.0 0.0 0.00 0.69 0.31 99 1011.5
20260506120212 45 11 0.0 0.9 0.00 0.69 0.31 99 1011.4
20260506115256 45 337 0.0 0.0 0.00 0.69 0.31 99 1011.7
20260506113255 45 316 0.0 0.0 0.01 0.69 0.31 99 1011.6
20260506112353 45 322 0.0 0.0 0.01 0.69 0.31 99 1011.1
20260506111354 45 27 0.0 0.9 0.01 0.69 0.31 99 1010.7
20260506110355 45 340 0.0 3.5 0.01 0.69 0.31 99 1010.3
20260506105356 45 3 0.0 0.9 0.01 0.69 0.31 99 1010.1
20260506104454 46 349 0.0 1.7 0.00 0.68 0.30 99 1010.2
20260506103455 46 298 0.0 0.0 0.00 0.68 0.30 99 1010.5
20260506101454 46 339 0.0 0.0 0.00 0.68 0.30 99 1009.9
20260506101354 46 1 0.0 2.6 0.00 0.68 0.30 99 1009.8
20260506095357 45 343 0.0 0.0 0.00 0.68 0.30 99 1009.3
20260506093354 45 337 0.0 0.0 0.03 0.68 0.30 99 1009.4
20260506091354 45 328 0.9 1.7 0.05 0.68 0.30 99 1009.5
20260506090355 45 336 0.0 0.9 0.07 0.68 0.30 98 1009.5
20260506085355 45 7 0.0 2.6 0.09 0.68 0.30 98 1009.0
20260506084355 46 1 0.0 3.5 0.08 0.66 0.28 97 1009.5
20260506083354 46 356 0.0 0.9 0.07 0.65 0.27 98 1009.7
20260506082354 46 344 0.0 0.9 0.06 0.64 0.26 98 1009.4
20260506081354 46 320 0.9 2.6 0.05 0.63 0.24 97 1009.0
20260506080355 46 330 0.0 1.7 0.03 0.61 0.22 98 1009.2
20260506073354 47 353 0.0 2.6 0.05 0.57 0.20 98 1008.6
20260506072356 47 249 0.0 0.0 0.06 0.57 0.20 97 1008.7
20260506071355 47 336 0.0 0.0 0.08 0.57 0.20 97 1008.6
20260506070453 47 337 0.0 0.0 0.10 0.57 0.20 98 1008.6
20260506061655 49 351 0.0 0.9 0.11 0.51 0.12 97 1008.8
20260506060654 49 321 0.0 1.7 0.11 0.49 0.11 97 1008.8
20260506050853 51 337 0.0 0.0 0.01 0.39 0.01 97 1009.0
20260506044856 52 312 0.0 0.0 0.00 0.38 0.00 96 1009.2
20260506043954 53 335 0.0 0.0 0.00 0.38 0.00 96 1009.1
20260506043011 54 45 0.0 0.0 0.02 0.38 0.00 95 1009.3
20260506041954 55 359 0.0 0.9 0.03 0.38 0.00 96 1009.4
20260506040955 57 346 0.0 1.7 0.04 0.38 0.00 96 1009.3
20260506035114 57 202 1.7 2.6 0.08 0.38 0.38 96 1009.4
20260506033153 57 214 3.5 5.2 0.08 0.36 0.36 96 1009.7
20260506032213 57 224 2.6 3.5 0.07 0.35 0.35 96 1009.9
20260506031256 58 226 3.5 5.2 0.08 0.34 0.34 96 1010.1
20260506030257 58 235 2.6 3.5 0.08 0.32 0.31 96 1010.2
20260506025355 58 229 3.5 5.2 0.08 0.30 0.30 96 1010.3
20260506023357 58 225 3.5 5.2 0.10 0.28 0.28 95 1010.1
20260506022356 58 222 1.7 3.5 0.11 0.28 0.28 95 1010.2
20260506020455 59 226 4.3 6.1 0.08 0.24 0.24 95 1010.1
20260506014455 59 228 3.5 5.2 0.05 0.20 0.20 95 1010.0
20260506013455 59 225 2.6 3.5 0.04 0.19 0.19 95 1009.8
20260506012455 59 224 0.9 1.7 0.03 0.18 0.17 95 1009.8
20260506011512 59 223 0.9 2.6 0.01 0.16 0.16 95 1009.7
20260506010555 59 225 0.0 2.6 0.02 0.16 0.16 95 1009.6